sat.trackr.live / text

‹ back to catalog

STARLINK-4778

NORAD 53836 · 2022-114U

PAYLOAD ACTIVE UNKNOWN

§ Identity

Operator
Country
US
Launch date
2022-09-19
Launch site
AFETR
Launch vehicle
Mass (kg)
RCS (m²)

Purposes: comms

External: N2YO · Heavens-Above · Gunter

§ Orbital elements

Epoch: 2026-09-20T22:00:03.000096Z

Period
94.01 min
Inclination
53.1601°
Eccentricity
0.0001453
Mean motion
15.31696999 rev/d
Perigee alt
469.8 km
Apogee alt
471.7 km
Semi-major
6,848.9 km
B*
2.5929e-4
RAAN
112.2343°
Arg perigee
80.2937°
Mean anomaly
328.4039°
Rev number
584

§ Raw data

STARLINK-47781 53836U 22114U   26263.91670139  .00007688  00000+0  25929-3 0  99982 53836  53.1601 112.2343 0001453  80.2937 328.4039 15.31696999  5845

JSON: /api/v1/satellites/53836 · /tle

For live sub-satellite position, see the globe view (requires WebGL).

§ Visibility from observer

Set your observer location to see the next 7 days of passes ≥ 10°. The values pass through the URL so the page stays shareable.

No JS? Fill the form by hand. The geolocation button needs JavaScript.